Regional Weather Roundup
Issued by NWS Upton, NY

Current Version | Previous Version | Text Only | Print | Product List | Glossary On
Versions: 1 2 3 4 5 6 7 8 9 10 11 12 13 14 15 16 17 18 19 20 21 22 23 24 25 26 27 28 29 30 31 32 33 34 35 36 37 38 39 40 41 42 43 44 45 46 47 48 49 50
000
ASUS41 KOKX 281205
RWROKX

REGIONAL WEATHER ROUNDUP
NATIONAL WEATHER SERVICE NEW YORK NY
700 AM EST WED JAN 28 2015

NOTE: "FAIR" INDICATES FEW OR NO CLOUDS BELOW 12,000 FEET WITH NO
SIGNIFICANT WEATHER AND/OR OBSTRUCTIONS TO VISIBILITY.

NYZ071-072-176-178-NJZ106-104-281300-
NEW YORK CITY METRO AREA


CITY           SKY/WX    TMP DP  RH WIND       PRES   REMARKS
CENTRAL PARK   CLEAR     17  -2  43 NW9       30.00R WCI   6
LAGUARDIA APRT PTCLDY    18   2  49 NW15      29.98R WCI   4
KENNEDY INTL   PTCLDY    18   0  45 NW17G25   29.98R WCI   3
NEWARK/LIBERTY PTCLDY    17  -2  43 NW12G21   30.00R WCI   4
BRNX BOT. GARD   N/A    N/A N/A N/A W13       29.98R
TETERBORO      CLEAR     16  -3  43 NW6       29.99R WCI   7
$$

NYZ177-179-078>081-281300-
LONG ISLAND NEW YORK

CITY           SKY/WX    TMP DP  RH WIND       PRES   REMARKS
FARMINGDALE    PTCLDY    18   3  52 NW8       29.96R WCI   8
ISLIP          MOCLDY    18   5  57 N28G37    29.91R WCI  -1
SHIRLEY        CLOUDY    17   5  59 N15G29    29.94R WCI   2
WESTHAMPTON    CLOUDY    17   6  62 NW17      29.93R WCI   1
MONTAUK POINT    N/A     17   6  62 NW17G28   29.90R WCI   1
$$

NYZ052-065-067-281300-
HUDSON VALLEY

CITY           SKY/WX    TMP DP  RH WIND       PRES   REMARKS
WHITE PLAINS   PTCLDY    14   1  56 NW13      29.92R WCI   0
NEWBURGH       PTCLDY    12   1  62 NW6       29.97R WCI   3
MONTGOMERY     CLEAR     16  -1  47 NW8       29.96R WCI   5
POUGHKEEPSIE   CLOUDY    15   4  61 NE6       29.98R WCI   6
ALBANY         FLURRIES  11  -2  56 N10       30.05R WCI  -3
$$

NJZ001-105-106-008-010-013-015-019>022-104-281300-
NEW JERSEY

CITY           SKY/WX    TMP DP  RH WIND       PRES   REMARKS
NEWARK/LIBERTY PTCLDY    17  -2  43 NW12G21   30.00R WCI   4
TETERBORO      CLEAR     16  -3  43 NW6       29.99R WCI   7
CALDWELL       CLEAR     16  -5  39 VRB5      30.00R WCI   9
MORRISTOWN     PTCLDY    16   0  48 NW10G22   29.99R WCI   3
SOMERVILLE     MOCLDY    18   0  45 NW13      30.00R WCI   5
SUSSEX         CLEAR     14  -2  49 VRB5      29.99R WCI   6
ANDOVER          N/A     14   0  53 VRB6      30.00R WCI   5
TRENTON        CLEAR     17  -1  45 NW9       30.02R WCI   6
MILLVILLE      CLEAR     20   1  43 NW13G21   30.05R WCI   7
ATLANTIC CITY  CLEAR     18   3  52 NW14      30.02R WCI   4
WRIGHTSTOWN    CLEAR     17   0  48 NW13      30.00R WCI   3
TOMS RIVER     CLEAR     16   3  57 NW10      30.01R WCI   3
BELMAR         CLEAR     16  -2  45 NW12      29.98R WCI   3
$$

PAZ047>061-062-071-281300-
EASTERN PENNSYLVANIA

CITY           SKY/WX    TMP DP  RH WIND       PRES   REMARKS
PHILADELPHIA   PTCLDY    20  -2  38 NW16      30.07R WCI   6
ALLENTOWN      CLEAR     16  -3  43 NW10G18   30.05R WCI   4
SCRANTON       CLEAR     11  -1  58 N7        30.06R WCI   0
$$

CTZ002-004>006-009-010-012-RIZ004-006-007-MAZ004-011-015-281300-
SOUTHERN NEW ENGLAND
 IN CT

CITY           SKY/WX    TMP DP  RH WIND       PRES   REMARKS
BRADLEY INTL   PTCLDY    13   0  56 N8        29.93R WCI   2
HARTFORD       MOCLDY    14   2  58 N9        29.95R WCI   2
DANBURY        CLOUDY    15  -1  49 N18G25    29.93R WCI  -2
WTRBRY/OXFORD  MOCLDY    12  -2  52 N9G16     29.89R WCI   0
BRIDGEPORT     CLOUDY    16   4  59 N15G23    29.95R WCI   1
MERIDEN        CLEAR     14   3  61 NW6       29.94R WCI   5
NEW HAVEN      MOCLDY    16   4  59 NW9G24    29.93R WCI   4
CHESTER        FAIR      14   3  62 NW14G20   29.89R WCI  -1
GROTON         CLEAR     13   2  61 N13G23    29.90R WCI  -2
WILLIMANTIC    CLOUDY    14   0  53 NW8       29.91R WCI   3

 IN RI

CITY           SKY/WX    TMP DP  RH WIND       PRES   REMARKS
PROVIDENCE     MOCLDY    13   2  61 NW8       29.87R WCI   2
BLOCK ISLAND   PTCLDY    16   3  57 NW15G23   29.84R WCI   1
WESTERLY       PTCLDY    13   1  59 NW12G21   29.88R WCI  -1

 IN MA

CITY           SKY/WX    TMP DP  RH WIND       PRES   REMARKS
BOSTON         CLOUDY    14   4  64 NW14      29.86R WCI  -1
WORCESTER      CLOUDY     8   0  69 NW21G29   29.79R WCI -12
WESTFIELD      PTCLDY    12   0  58 N12       29.93R WCI  -2
PROVINCETOWN   CLOUDY    21  16  79 NW23G30   29.78R WCI   5
NANTUCKET      FLURRIES  19  13  77 NW18G25   29.80R WCI   4
$$

ANZ330-335-338-340-345-350-353-355-281300-
COASTAL MARINE OBSERVATIONS


STATION/POSITION TIME  SKY/WX   TEMP    WIND        PRES    VSBY  WAVE
                                AIR SEA DIR/SP/G                  HT/PER
                 (UTC)          (F)     (DEG/KT/KT) (MB)    (MI)  (FT/S)
NY HARB ENTRANCE 1100            21 40  310/ 21/ 25 1013.2          4/13
4S FIRE IS       NOT AVBL
20S FIRE ISLAND  1100               42              1013.1          6/ 5
23SW MTP         1200                                 N/A           6/ 5
HUDSON CANYON    NOT AVBL
EXECUTION ROCKS  1200            19 34  290/ 12/ 17   N/A
WESTERN LI SOUND 1200            19     340/ 14/ 16   N/A           1
CENTRAL LI SOUND 1100            18 35  330/ 21/ 27   N/A           3/ 4
EASTERN LI SOUND NOT AVBL
ROBBINS REEF     1200            18     320/ 20/ 25 1014.1
$$


>>>>>>>>>>>>>>>>>>>>>>>>>>>> KEY <<<<<<<<<<<<<<<<<<<<<<<<<<<
>                                                          <
>     SKY/WX - SKY CONDITION/PRESENT WEATHER               <
>     TMP    - TEMPERATURE IN FAHRENHEIT                   <
>     DP     - DEWPOINT IN FAHRENHEIT                      <
>     RH     - RELATIVE HUMIDITY IN PERCENT                <
>     WIND   - DIRECTION AND SPEED IN MPH                  <
>     PRES   - MEAN SEA LEVEL PRESSURE IN INCHES OF HG     <
>     WCI    - WIND CHILL INDEX                            <
>     VSB    - VISIBILITY IN MILES                         <
>     HX     - HEAT INDEX                                  <
>     TC     - TEMPERATURE IN CELSIUS                      <
>     VRB    - VARIABLE WIND DIRECTION                     <
>                                                          <
>>>>>>>>>>>>>>>>>>>>>>>>>>>> KEY <<<<<<<<<<<<<<<<<<<<<<<<<<<




USA.gov is the U.S. government's official web portal to all federal, state and local government web resources and services.